Zurück zum Katalog

COSMOS 2392

AktivMilitärUNKNOWN
NORAD 27470·PAYLOAD·🇷🇺 Russia

Gestartet Jul 25, 2002 von Baikonur Cosmodrome

Loading…

Nächste Überflüge (nächste 24 Stunden)

TLE

AktuellSource: Space-Track

Epoche: Sep 14, 2026, 21:18 UTC

1 27470U 02037A   26257.88807731  .00000154  00000-0  13600-2 0  9998
2 27470  63.3959 229.3696 0626124 359.6375  16.1462 12.06808924 64126

Verfolge COSMOS 2392 in Echtzeit mit AllMySat

Download on the App Store